[[{"header":{"parameterUnit":"m.s-1","parameterCategory":1,"la1":30.2991,"la2":30.254,"lo1":-89.0895,"lo2":-89.0444,"dy":0.0017,"dx":0.0017,"nx":28,"ny":28,"refTime":"2024-03-27T21:00:00:Z","depth":0,"parameterNumber":2,"parameterNumberName":"U-component_of_WINDS"},"data":[0,0,0,0,0,0,0,0,0,0,0,0,0,0,0,0,0,0,0,0,0,0,0,0,0,0,0,0,0,0,0,0,0,0,0,0,0,0,0,0,0,0,0,0,0,0,0,0,0,0,0,0,0,0,0,0,0,0,-2.4828,-2.4828,0,-2.4829,-2.4829,-2.4829,-2.4792,-2.4791,-2.479,-2.4789,-2.4791,-2.4792,-2.4793,0,0,0,0,0,0,0,0,0,0,0,0,0,-2.4797,-2.4797,-2.4828,-2.4828,-2.4828,-2.4829,-2.4829,-2.4829,-2.4792,-2.4791,-2.479,-2.4789,-2.4791,-2.4792,-2.4793,0,0,0,0,0,0,0,0,0,0,0,0,0,-2.4805,-2.4798,-2.4828,-2.481,-2.4808,-2.4829,-2.4829,-2.4829,-2.4792,-2.4791,-2.4789,-2.4788,-2.479,-2.4792,-2.4793,-2.4832,0,0,-2.4798,-2.4798,0,0,0,0,0,0,0,0,-2.4805,-2.4807,-2.4813,-2.4811,-2.4809,-2.4809,-2.4819,-2.483,-2.4793,-2.4798,-2.4789,-2.4787,-2.4798,-2.4799,-2.4803,-2.4833,-2.4833,-2.4798,-2.4799,-2.4799,-2.48,0,0,0,0,0,0,0,-2.4804,-2.4806,-2.4829,-2.4813,-2.4811,-2.4802,-2.4802,-2.4821,-2.4807,-2.4798,-2.4795,-2.4796,-2.4797,-2.4801,-2.4802,-2.4833,-2.4798,-2.4799,-2.48,-2.4801,-2.4896,-2.4897,0,0,0,0,0,0,-2.4806,-2.4806,-2.4829,-2.4829,-2.4803,-2.4804,-2.4804,-2.4811,-2.4806,-2.4804,-2.4797,-2.4794,-2.4799,-2.4801,-2.4802,-2.4848,-2.4799,-2.4801,-2.4802,-2.4894,-2.4896,-2.4898,0,0,0,0,0,0,-2.4806,-2.4808,-2.4829,-2.4817,-2.4819,-2.4806,-2.4814,-2.4811,-2.4815,-2.4806,-2.4803,-2.4803,-2.4798,-2.48,-2.4825,-2.4847,-2.4802,-2.4803,-2.4892,-2.4895,-2.4897,-2.4939,0,0,0,0,0,0,-2.4805,-2.4808,-2.4822,-2.4817,-2.4819,-2.4851,-2.4816,-2.4813,-2.4818,-2.4814,-2.4811,-2.4809,-2.4797,-2.4823,-2.4827,-2.4848,-2.4804,-2.489,-2.4893,-2.4896,-2.4935,-2.4942,-2.4948,0,0,0,0,0,-2.4804,-2.4834,-2.4823,-2.4826,-2.4837,-2.4852,-2.4854,-2.4839,-2.482,-2.4834,-2.4828,-2.4809,-2.4845,-2.4826,-2.483,-2.4852,-2.4889,-2.4893,-2.4896,-2.4932,-2.4941,-2.4948,0,0,0,0,0,0,-2.4842,-2.4833,-2.4821,-2.485,-2.4852,-2.4846,-2.4863,-2.4848,-2.4856,-2.4852,-2.4833,-2.4833,-2.4861,-2.486,-2.4839,-2.4891,-2.4864,-2.4868,-2.489,-2.4898,-2.4904,-2.4903,-2.4805,0,0,0,0,0,-2.4854,-2.4867,-2.4859,-2.4886,-2.4887,-2.4876,-2.4882,-2.487,-2.4872,-2.4872,-2.4868,-2.4871,-2.4883,-2.4891,-2.4901,-2.4936,-2.4935,-2.4953,-2.496,-2.4965,-2.4969,-2.4988,-2.4996,-2.491,-2.491,-2.491,0,0,-2.4878,-2.4875,-2.4884,-2.4893,-2.4893,-2.4908,-2.4876,-2.4893,-2.4903,-2.4875,-2.4898,-2.4896,-2.4898,-2.4928,-2.4941,-2.4927,-2.4993,-2.497,-2.4974,-2.4975,-2.4992,-2.5001,-2.5008,-2.4913,-2.4912,-2.4912,0,0,-2.493,-2.4929,-2.4951,-2.4953,-2.4954,-2.4946,-2.4952,-2.4948,-2.4945,-2.4968,-2.4947,-2.4961,-2.4981,-2.4983,-2.4987,-2.5043,-2.5026,-2.5047,-2.508,-2.5099,-2.5105,-2.5111,-2.5131,-2.5138,-2.5051,-2.5051,-2.5051,0,-2.496,-2.498,-2.4965,-2.4983,-2.4988,-2.4964,-2.4987,-2.4989,-2.4993,-2.4997,-2.4982,-2.5008,-2.5008,-2.5038,-2.5052,-2.5057,-2.5063,-2.5046,-2.5106,-2.5111,-2.5117,-2.5135,-2.5142,-2.5054,-2.5053,-2.5053,-2.5053,0,-2.5018,-2.5032,-2.5051,-2.5055,-2.5062,-2.5083,-2.5071,-2.5081,-2.507,-2.5064,-2.5089,-2.5088,-2.5098,-2.5105,-2.5094,-2.5134,-2.5126,-2.5109,-2.5081,-2.5128,-2.5144,-2.5151,-2.5057,-2.5056,-2.5056,-2.5055,0,0,-2.5091,-2.5088,-2.5095,-2.5097,-2.5098,-2.5109,-2.5129,-2.5139,-2.5147,-2.5152,-2.5169,-2.5188,-2.5172,-2.5177,-2.5167,-2.5183,-2.5227,-2.5164,-2.5164,-2.5175,-2.5271,-2.5283,-2.5291,-2.5217,-2.5218,-2.5219,-2.5271,0,-2.514,-2.5173,-2.5161,-2.5195,-2.5209,-2.5188,-2.5205,-2.5208,-2.5204,-2.5216,-2.5212,-2.5225,-2.5204,-2.5207,-2.5222,-2.5218,-2.5246,-2.5215,-2.5232,-2.5233,-2.523,-2.53,-2.5312,-2.5361,-2.5277,-2.5279,-2.5279,0,-2.5201,-2.5208,-2.5244,-2.5243,-2.5248,-2.5264,-2.5273,-2.5284,-2.5288,-2.5284,-2.529,-2.5277,-2.5298,-2.5272,-2.53,-2.5279,-2.5286,-2.5286,-2.5287,-2.5287,-2.5257,-2.53,-2.5376,-2.5383,-2.529,-2.5289,-2.5288,0,-2.525,-2.5269,-2.5293,-2.5296,-2.5295,-2.5307,-2.5308,-2.531,-2.5317,-2.5325,-2.5329,-2.534,-2.5345,-2.5355,-2.5345,-2.5327,-2.5375,-2.5348,-2.5372,-2.5373,-2.5381,-2.5381,-2.5458,-2.5389,-2.5389,-2.5389,-2.5388,0,-2.5305,-2.5328,-2.5315,-2.5329,-2.5354,-2.5341,-2.5367,-2.5365,-2.5367,-2.5382,-2.5365,-2.5379,-2.5366,-2.538,-2.5373,-2.5397,-2.54,-2.5398,-2.5395,-2.5398,-2.5399,-2.5401,-2.5397,-2.539,-2.539,-2.539,-2.5389,0,-2.5363,-2.5355,-2.538,-2.5378,-2.5378,-2.5397,-2.5395,-2.5409,-2.5405,-2.5424,-2.5427,-2.5421,-2.5436,-2.5428,-2.5443,-2.5439,-2.5471,-2.5464,-2.5469,-2.5467,-2.5491,-2.5488,-2.5572,-2.5582,-2.5507,-2.5508,-2.5508,0,-2.5398,-2.5415,-2.5415,-2.5424,-2.5425,-2.5439,-2.5446,-2.5435,-2.5443,-2.545,-2.5463,-2.5477,-2.5486,-2.5512,-2.5509,-2.5521,-2.5514,-2.5542,-2.5515,-2.5518,-2.5513,-2.5512,-2.5513,-2.5547,-2.5548,-2.5549,-2.5549,0,-2.5461,-2.5457,-2.5467,-2.5477,-2.5487,-2.5494,-2.55,-2.5508,-2.5497,-2.5508,-2.5523,-2.5531,-2.5547,-2.5561,-2.5572,-2.5573,-2.556,-2.5558,-2.5564,-2.5567,-2.5568,-2.5567,-2.5482,-2.5556,-2.5555,-2.5555,-2.5554,-2.5554,-2.5508,-2.5522,-2.5524,-2.5537,-2.5541,-2.5547,-2.556,-2.5558,-2.557,-2.5582,-2.5576,-2.5593,-2.5598,-2.5611,-2.5615,-2.5629,-2.5618,-2.5626,-2.5628,-2.5631,-2.5633,-2.5568,-2.5631,-2.5631,-2.5631,-2.5631,-2.563,0,-2.5569,-2.557,-2.5582,-2.5591,-2.5602,-2.5589,-2.5596,-2.5605,-2.5621,-2.5626,-2.5637,-2.5655,-2.5669,-2.5668,-2.568,-2.5692,-2.5686,-2.5696,-2.5694,-2.5695,-2.5643,-2.5636,-2.57,-2.57,-2.57,-2.57,-2.57,-2.57,-2.5602,-2.5625,-2.5622,-2.5647,-2.5648,-2.5665,-2.567,-2.5676,-2.568,-2.5701,-2.5712,-2.5712,-2.5715,-2.5728,-2.574,-2.574,-2.5745,-2.5757,-2.5754,-2.5705,-2.5698,-2.5691,-2.5685,-2.5758,-2.5758,-2.5804,-2.5804,-2.5804]},{"header":{"parameterUnit":"m.s-1","parameterCategory":1,"la1":30.2991,"la2":30.254,"lo1":-89.0895,"lo2":-89.0444,"dy":0.0017,"dx":0.0017,"nx":28,"ny":28,"refTime":"2024-03-27T21:00:00:Z","depth":0,"parameterNumber":3,"parameterNumberName":"V-component_of_WINDS"},"data":[0,0,0,0,0,0,0,0,0,0,0,0,0,0,0,0,0,0,0,0,0,0,0,0,0,0,0,0,0,0,0,0,0,0,0,0,0,0,0,0,0,0,0,0,0,0,0,0,0,0,0,0,0,0,0,0,0,0,4.3257,4.3257,0,4.3292,4.3292,4.3293,4.332,4.332,4.3321,4.3321,4.3354,4.3355,4.3355,0,0,0,0,0,0,0,0,0,0,0,0,0,4.3212,4.3212,4.3257,4.3257,4.3258,4.3292,4.3292,4.3293,4.332,4.332,4.3321,4.3321,4.3354,4.3355,4.3355,0,0,0,0,0,0,0,0,0,0,0,0,0,4.3237,4.3212,4.3257,4.3275,4.3277,4.3292,4.3293,4.3293,4.332,4.332,4.3321,4.3321,4.3354,4.3355,4.3356,4.3354,0,0,4.3359,4.3359,0,0,0,0,0,0,0,0,4.3236,4.3239,4.3272,4.3274,4.3276,4.3302,4.3289,4.3313,4.332,4.3304,4.3321,4.3321,4.3336,4.3339,4.3344,4.3355,4.3357,4.3359,4.3359,4.336,4.336,0,0,0,0,0,0,0,4.3234,4.3238,4.3271,4.3273,4.3275,4.3282,4.3286,4.3294,4.3317,4.3305,4.3307,4.3311,4.3338,4.3343,4.3345,4.3357,4.3359,4.3359,4.336,4.336,4.3369,4.3369,0,0,0,0,0,0,4.323,4.3236,4.327,4.3272,4.3257,4.3282,4.3287,4.3293,4.3317,4.3321,4.3311,4.3312,4.3342,4.3344,4.3347,4.3347,4.336,4.336,4.3361,4.3369,4.3369,4.3369,0,0,0,0,0,0,4.3229,4.3232,4.3268,4.3254,4.326,4.3282,4.329,4.3294,4.33,4.3322,4.3326,4.3313,4.3342,4.3345,4.3352,4.3348,4.3361,4.3362,4.337,4.3369,4.3369,4.3346,0,0,0,0,0,0,4.3227,4.3232,4.3231,4.3254,4.326,4.3273,4.329,4.3294,4.3302,4.3304,4.3324,4.3328,4.3343,4.3351,4.3353,4.335,4.3363,4.337,4.337,4.3369,4.3348,4.3345,4.3343,0,0,0,0,0,4.3225,4.3223,4.3231,4.3235,4.326,4.3273,4.3276,4.3294,4.3301,4.3301,4.3315,4.3327,4.3348,4.3351,4.3354,4.3351,4.3371,4.337,4.3369,4.3349,4.3346,4.3343,0,0,0,0,0,0,4.3198,4.3226,4.3236,4.3241,4.3255,4.3278,4.3278,4.329,4.3301,4.3303,4.3323,4.3328,4.3333,4.3342,4.3345,4.3351,4.3361,4.3361,4.3344,4.3342,4.334,4.3337,4.3363,0,0,0,0,0,4.3192,4.3201,4.3225,4.3227,4.3234,4.3255,4.3261,4.3273,4.3288,4.3294,4.3308,4.3321,4.3331,4.3337,4.3347,4.3349,4.3354,4.3349,4.3346,4.3345,4.3344,4.3347,4.3345,4.3366,4.3366,4.3366,0,0,4.3181,4.3198,4.3201,4.3222,4.3234,4.3242,4.3259,4.3267,4.3273,4.3294,4.3302,4.3314,4.333,4.3335,4.3337,4.3343,4.334,4.3344,4.3342,4.3343,4.3346,4.3344,4.3342,4.3366,4.3366,4.3366,0,0,4.3165,4.3178,4.3182,4.3194,4.3213,4.3227,4.3228,4.325,4.3258,4.3267,4.3284,4.3291,4.3307,4.3318,4.3326,4.3316,4.3327,4.3318,4.3306,4.3309,4.3307,4.3306,4.3303,4.3302,4.3318,4.3318,4.3318,0,4.3148,4.3162,4.3182,4.3189,4.3198,4.3219,4.3223,4.3234,4.3254,4.326,4.3266,4.3287,4.33,4.3308,4.3306,4.3311,4.3313,4.3316,4.3306,4.3305,4.3304,4.3301,4.33,4.3316,4.3317,4.3317,4.3317,0,4.3141,4.315,4.3151,4.3172,4.318,4.3186,4.3207,4.3213,4.3225,4.3239,4.3247,4.3263,4.3277,4.328,4.3291,4.329,4.3293,4.3302,4.3313,4.33,4.3298,4.3297,4.3315,4.3315,4.3315,4.3316,0,0,4.3107,4.314,4.314,4.3151,4.3174,4.3181,4.3188,4.3203,4.3208,4.3222,4.3228,4.3242,4.3251,4.326,4.3273,4.3275,4.3267,4.3284,4.3285,4.3281,4.3267,4.3261,4.3259,4.3275,4.3274,4.3274,4.3266,0,4.3095,4.3109,4.3128,4.3135,4.3145,4.3166,4.3172,4.3186,4.3199,4.3208,4.3222,4.3232,4.3243,4.3249,4.3252,4.3267,4.3264,4.3268,4.328,4.3281,4.3276,4.3258,4.325,4.3242,4.3265,4.3265,4.3265,0,4.3082,4.3096,4.3105,4.3129,4.3134,4.3139,4.3155,4.3163,4.318,4.319,4.32,4.3215,4.3223,4.3232,4.3244,4.3246,4.3252,4.326,4.326,4.3262,4.3272,4.326,4.3239,4.3238,4.3264,4.3264,4.3264,0,4.3058,4.3079,4.3088,4.3096,4.3123,4.3126,4.3138,4.3155,4.3164,4.3177,4.3183,4.3197,4.3204,4.3215,4.3232,4.3238,4.3242,4.3253,4.325,4.325,4.325,4.325,4.3231,4.3253,4.3253,4.3253,4.3253,0,4.3042,4.3047,4.3077,4.3082,4.3089,4.311,4.3116,4.3129,4.3144,4.3152,4.3171,4.3178,4.32,4.321,4.3224,4.3232,4.3235,4.3242,4.3246,4.3241,4.324,4.3245,4.3247,4.3253,4.3253,4.3253,4.3253,0,4.3016,4.3036,4.3047,4.3073,4.3079,4.3083,4.3105,4.311,4.3125,4.3135,4.3138,4.3161,4.3173,4.3192,4.3209,4.3219,4.3225,4.323,4.3219,4.3221,4.3218,4.3218,4.3202,4.3201,4.3224,4.3223,4.3223,0,4.3005,4.3009,4.3036,4.3044,4.3055,4.3066,4.3075,4.3097,4.3105,4.3126,4.3129,4.3143,4.3156,4.3174,4.3192,4.3206,4.3212,4.3205,4.3214,4.3209,4.3213,4.3212,4.3213,4.3203,4.3203,4.3203,4.3203,0,4.2983,4.2994,4.3007,4.3023,4.3034,4.3048,4.3063,4.3067,4.3092,4.3101,4.3115,4.3124,4.3143,4.3157,4.3173,4.3184,4.3198,4.32,4.32,4.3195,4.3189,4.3193,4.3214,4.32,4.32,4.32,4.3201,4.3201,4.2965,4.297,4.2991,4.3005,4.3018,4.3032,4.3039,4.3056,4.3068,4.3086,4.3097,4.311,4.3128,4.3152,4.3162,4.3173,4.3178,4.3178,4.3178,4.3178,4.3177,4.3187,4.3176,4.3176,4.3176,4.3176,4.3176,0,4.2945,4.296,4.2972,4.2993,4.3005,4.3017,4.3035,4.3043,4.3055,4.307,4.3083,4.3099,4.3113,4.3132,4.3147,4.3152,4.3158,4.3155,4.3155,4.3157,4.317,4.3169,4.3149,4.3149,4.3149,4.3149,4.3149,4.3149,4.2936,4.2947,4.2959,4.2977,4.2991,4.3005,4.3014,4.3027,4.304,4.3057,4.307,4.3082,4.31,4.3117,4.313,4.3135,4.314,4.3135,4.3142,4.3154,4.3156,4.3159,4.3157,4.3136,4.3136,4.3128,4.3128,4.3128]}]]